Find Starlink 35845

NORAD ID: 66366 Int'l Des: 2025-254 Owner: SPXS Country: US Constellation: starlink operational
LEOCIRCULAR

現在のビュー

3D地球を読み込み中...

About Starlink 35845

Starlink 35845 (NORAD 66366) is a starlink constellation satellite (v2 mini) launched Nov 6, 2025 by SPXS of US. It operates in LEO, CIRCULAR orbit with a mass of 575.00 kg.

Starlink 35845について

説明を読み込み中...

次回通過

Passes for default location (London). Set your location on the main map for personalized predictions.

高度履歴

Loading altitude history...

軌道要素

1 66366U 25254U 26194.75428682 .00010123 00000-0 33748-3 0 9994
2 66366 53.1595 6.4061 0001066 96.3578 263.7545 15.31703278 38285
Epoch: Jul 13, 2026 • Age: 12 hours

現在のステータス

高度 488.4 km
遠地点 / 近地点 N/A
速度 7.62 km/s
衛星直下点 -49.26°S, 82.83°W
打ち上げ日 Nov 6, 2025
運用期間 0.6 years
タイプ internet

技術仕様

分類 Payload
質量 575.00 kg
乾燥質量 530.00 kg
総質量 575.00 kg
長さ 0.30 m
直径 4.10 m
スパン 29.00 m
形状 Box + pan
製造者 SPXS
バスタイプ Starlink V2MO
フェーズステータス In Orbit
所有者/国 SPXS/US

Most Searched